Location: Newark
(49.8969°N, 3.3422°E)
Time: 13:15:39
(UTC+00:00)

Explorer 7 - Pass Details

Date: 02 February 2020
Orbit: 485 x 679 km, 50.3° (Epoch: 28 February)

Event Time Altitude Azimuth Distance (km) Brightness Sun altitude
Rises 19:53:32 0° 234° (SW) 2,644 10.9 -30.9°
Reaches altitude 10° 19:55:50 10° 228° (SW) 1,732 9.7 -31.2°
Enters shadow 19:55:50 10° 228° (SW) 1,729 9.7 -31.2°
Maximum altitude 19:59:34 46° 155° (SSE) 681 - -31.8°
Drops below altitude 10° 20:03:12 10° 81° (E) 1,680 - -32.4°
Sets 20:05:24 0° 75° (ENE) 2,555 - -32.8°
